CW0949 Weather Reports


Display with metric or nautical units.
time (UTC)temp
F
wind
direction
speed
MPH
gust
MPH
rain 1hr
in
rain 24hr
in
rain mn
in
humidity
%
barometer
mb
20260506174509 54 30 1.0 8.0 0.00 0.02 0.01 71 1010.8
20260506174002 55 34 2.0 8.0 0.00 0.02 0.01 69 1010.8
20260506173006 55 86 1.0 7.0 0.00 0.02 0.01 68 1010.7
20260506172502 55 81 1.0 7.0 0.00 0.02 0.01 68 1010.7
20260506172002 55 88 2.0 8.0 0.00 0.02 0.01 68 1010.6
20260506171506 55 60 3.0 11.0 0.00 0.02 0.01 67 1010.6
20260506171002 55 5 4.0 11.0 0.00 0.02 0.01 66 1010.5
20260506170501 56 5 3.0 10.0 0.00 0.02 0.01 65 1010.4
20260506165502 57 17 4.0 10.0 0.00 0.02 0.01 64 1010.3
20260506165002 57 346 3.0 15.0 0.00 0.02 0.01 64 1010.4
20260506164506 57 42 2.0 15.0 0.00 0.02 0.01 62 1010.3
20260506164002 57 53 2.0 11.0 0.00 0.02 0.01 63 1010.2
20260506163502 57 0 3.0 13.0 0.00 0.02 0.01 62 1010.1
20260506163006 57 0 1.0 13.0 0.00 0.02 0.01 61 1010.1
20260506162501 58 0 0.0 11.0 0.00 0.02 0.01 59 1010.1
20260506162001 58 0 0.0 10.0 0.00 0.02 0.01 61 1010.0
20260506161002 57 92 1.0 10.0 0.00 0.02 0.01 61 1010.0
20260506160502 58 78 1.0 10.0 0.00 0.02 0.01 62 1010.1
20260506160006 57 294 1.0 10.0 0.00 0.02 0.01 62 1010.0
20260506155501 57 5 0.0 9.0 0.00 0.02 0.01 62 1009.8
20260506155002 57 32 0.0 4.0 0.00 0.02 0.01 63 1009.8
20260506154507 57 38 1.0 13.0 0.00 0.02 0.01 65 1009.9
20260506153501 57 36 2.0 11.0 0.00 0.02 0.01 63 1009.9
20260506153006 58 355 1.0 10.0 0.00 0.02 0.01 66 1009.9
20260506152001 58 19 1.0 9.0 0.00 0.02 0.01 64 1009.9
20260506151507 59 84 1.0 8.0 0.00 0.02 0.01 63 1009.8
20260506151002 59 59 0.0 4.0 0.00 0.02 0.01 64 1009.8
20260506150502 59 51 0.0 5.0 0.00 0.02 0.01 64 1009.8
20260506150008 59 54 0.0 6.0 0.00 0.02 0.01 64 1009.7
20260506145502 59 9 1.0 8.0 0.00 0.02 0.01 63 1009.7
20260506144506 59 59 1.0 11.0 0.00 0.02 0.01 63 1009.6
20260506143501 59 76 1.0 11.0 0.00 0.02 0.01 61 1009.6
20260506143001 59 15 1.0 5.0 0.00 0.02 0.01 63 1009.6
20260506142002 59 5 1.0 10.0 0.00 0.02 0.01 63 1009.7
20260506141002 59 14 0.0 7.0 0.00 0.02 0.01 60 1009.6
20260506140501 59 32 0.0 9.0 0.00 0.02 0.01 61 1009.6
20260506140001 59 13 1.0 9.0 0.00 0.02 0.01 60 1009.6
20260506135501 59 70 1.0 10.0 0.00 0.02 0.01 61 1009.6
20260506134958 60 65 1.0 10.0 0.00 0.02 0.01 60 1009.5
20260506134458 60 355 1.0 9.0 0.00 0.02 0.01 59 1009.5
20260506133956 60 42 0.0 7.0 0.00 0.02 0.01 62 1009.4
20260506132953 60 44 0.0 7.0 0.00 0.02 0.01 61 1009.4
20260506131951 60 69 1.0 11.0 0.00 0.02 0.01 59 1009.4
20260506131451 60 34 1.0 9.0 0.00 0.02 0.01 60 1009.3
20260506130449 59 344 1.0 8.0 0.00 0.02 0.01 63 1009.3
20260506125450 59 10 0.0 8.0 0.00 0.02 0.01 64 1009.3
20260506124949 59 43 1.0 10.0 0.00 0.02 0.01 65 1009.3
20260506124450 59 66 1.0 10.0 0.00 0.02 0.01 64 1009.3
20260506123948 59 37 0.0 9.0 0.00 0.02 0.01 64 1009.3
20260506123448 59 34 1.0 7.0 0.00 0.02 0.01 66 1009.3
20260506122947 59 34 1.0 7.0 0.00 0.02 0.01 66 1009.3
20260506122445 58 0 1.0 9.0 0.00 0.02 0.01 66 1009.3
20260506121945 58 19 1.0 9.0 0.00 0.02 0.01 67 1009.3
20260506121447 58 0 0.0 5.0 0.00 0.02 0.01 69 1009.2
20260506120943 58 261 0.0 2.0 0.00 0.02 0.01 69 1009.3
20260506120440 58 262 1.0 8.0 0.00 0.02 0.01 67 1009.3
20260506115939 58 28 1.0 8.0 0.00 0.02 0.01 68 1009.3
20260506115438 58 312 0.0 6.0 0.00 0.02 0.01 70 1009.1
20260506114944 58 351 0.0 6.0 0.00 0.02 0.01 72 1009.2
20260506114437 58 299 0.0 4.0 0.00 0.02 0.01 72 1009.1
20260506113932 57 281 0.0 5.0 0.00 0.02 0.01 74 1009.1
20260506113433 57 51 0.0 6.0 0.00 0.02 0.01 73 1009.2
20260506112945 57 32 0.0 6.0 0.00 0.03 0.01 73 1009.1
20260506112433 57 28 1.0 6.0 0.00 0.03 0.01 73 1009.2
20260506111933 57 31 0.0 6.0 0.00 0.03 0.01 75 1009.1
20260506111433 57 39 0.0 5.0 0.00 0.03 0.01 75 1009.2
20260506110934 57 42 1.0 9.0 0.00 0.03 0.01 75 1009.2
20260506105933 57 59 1.0 9.0 0.00 0.04 0.01 75 1009.2
20260506104931 57 340 0.0 3.0 0.00 0.04 0.01 77 1009.2
20260506104431 57 333 1.0 9.0 0.00 0.04 0.01 76 1009.2
20260506103931 56 333 1.0 9.0 0.00 0.04 0.01 78 1009.2
20260506103434 56 332 1.0 8.0 0.00 0.04 0.01 79 1009.2
20260506102929 56 24 1.0 8.0 0.00 0.04 0.01 79 1009.3
20260506101431 56 268 0.0 4.0 0.00 0.04 0.01 82 1009.3
20260506100930 56 250 0.0 7.0 0.00 0.04 0.01 83 1009.2
20260506100431 55 13 0.0 7.0 0.00 0.04 0.01 83 1009.2
20260506095929 55 348 1.0 7.0 0.00 0.04 0.01 83 1009.1
20260506095429 55 5 0.0 7.0 0.00 0.04 0.01 85 1009.1
20260506094931 55 317 0.0 6.0 0.00 0.04 0.01 87 1009.1
20260506093924 54 299 1.0 6.0 0.00 0.04 0.01 89 1009.1
20260506093425 54 336 1.0 6.0 0.00 0.04 0.01 89 1009.1
20260506092923 54 351 0.0 5.0 0.00 0.04 0.01 91 1009.1
20260506092422 53 342 0.0 3.0 0.00 0.04 0.01 92 1009.1
20260506091921 53 345 0.0 3.0 0.00 0.04 0.01 92 1009.0
20260506091424 53 344 0.0 2.0 0.00 0.04 0.01 92 1009.0
20260506090921 53 344 0.0 2.0 0.00 0.04 0.01 93 1009.1
20260506085922 53 342 0.0 0.0 0.00 0.04 0.01 93 1009.0
20260506084922 52 9 0.0 4.0 0.00 0.04 0.01 93 1008.8
20260506084425 52 5 0.0 7.0 0.00 0.04 0.01 93 1008.8
20260506083907 52 9 0.0 7.0 0.00 0.04 0.01 93 1008.9
20260506083406 52 355 0.0 0.0 0.00 0.04 0.01 94 1008.8
20260506082903 52 23 0.0 4.0 0.00 0.04 0.01 94 1008.7
20260506082403 51 9 1.0 8.0 0.00 0.04 0.01 95 1008.7
20260506080903 51 355 0.0 2.0 0.00 0.04 0.01 96 1008.8
20260506080403 51 304 0.0 2.0 0.00 0.04 0.01 96 1008.8
20260506073401 49 288 0.0 1.0 0.00 0.04 0.01 98 1008.7
20260506072900 49 351 0.0 5.0 0.00 0.04 0.01 98 1008.6
20260506072401 49 13 0.0 5.0 0.00 0.04 0.01 98 1008.6
20260506071901 49 9 0.0 0.0 0.00 0.04 0.01 98 1008.6
20260506071401 49 16 0.0 0.0 0.00 0.04 0.01 98 1008.6
20260506070902 49 13 0.0 0.0 0.00 0.04 0.01 98 1008.6
20260506070401 49 17 0.0 0.0 0.00 0.04 0.01 98 1008.6
20260506062356 48 31 0.0 6.0 0.00 0.04 0.01 99 1008.3
20260506061855 48 31 0.0 6.0 0.00 0.04 0.01 99 1008.4
20260506060852 48 19 0.0 0.0 0.00 0.04 0.01 98 1008.2
20260506060350 48 19 0.0 0.0 0.00 0.04 0.01 98 1008.2
20260506051344 48 0 0.0 4.0 0.00 0.04 0.01 98 1008.0
20260506050841 48 20 0.0 4.0 0.00 0.04 0.01 97 1008.1
20260506050339 48 22 0.0 0.0 0.00 0.04 0.01 98 1008.1
20260506044838 48 17 0.0 0.0 0.00 0.04 0.01 97 1008.0
20260506044334 48 23 0.0 0.0 0.00 0.04 0.01 97 1008.0
20260506043833 48 22 0.0 1.0 0.00 0.04 0.01 97 1008.0
20260506043334 48 34 0.0 1.0 0.00 0.04 0.01 97 1008.1
20260506042832 48 23 0.0 0.0 0.00 0.04 0.01 97 1008.1
20260506042329 48 23 0.0 0.0 0.00 0.04 0.01 97 1008.0
20260506041829 48 24 0.0 0.0 0.00 0.04 0.01 97 1008.0
20260506041329 48 21 0.0 0.0 0.00 0.04 0.01 97 1008.1
20260506040829 48 22 0.0 0.0 0.00 0.04 0.01 96 1008.1
20260506040329 48 23 0.0 0.0 0.00 0.04 0.01 96 1008.0
20260506035829 48 28 0.0 0.0 0.00 0.04 0.01 96 1008.0
20260506035329 48 28 0.0 0.0 0.00 0.04 0.01 96 1008.0
20260506034329 48 29 0.0 0.0 0.00 0.04 0.01 96 1008.1
20260506033330 48 32 0.0 0.0 0.00 0.04 0.01 96 1008.1
20260506032829 48 32 0.0 0.0 0.00 0.04 0.01 96 1008.1
20260506032327 48 33 0.0 0.0 0.00 0.04 0.01 96 1008.2
20260506031827 48 33 0.0 0.0 0.00 0.04 0.01 95 1008.2
20260506031318 48 33 0.0 0.0 0.01 0.04 0.01 95 1008.2
20260506030814 49 32 0.0 0.0 0.01 0.04 0.01 95 1008.3
20260506030306 49 32 0.0 0.0 0.01 0.04 0.01 95 1008.4
20260506025806 49 31 0.0 0.0 0.01 0.04 0.01 94 1008.3
20260506025305 49 30 0.0 0.0 0.01 0.04 0.01 94 1008.4
20260506024802 49 22 0.0 0.0 0.01 0.04 0.01 94 1008.4
20260506024303 49 22 0.0 2.0 0.01 0.04 0.01 94 1008.4
20260506023804 49 16 1.0 11.0 0.01 0.04 0.01 94 1008.5
20260506023303 49 23 1.0 11.0 0.01 0.04 0.01 93 1008.5
20260506022802 49 54 0.0 0.0 0.01 0.04 0.01 93 1008.4
20260506022305 49 54 0.0 0.0 0.01 0.04 0.01 93 1008.5
20260506021802 49 54 0.0 0.0 0.01 0.04 0.01 93 1008.4
20260506021302 49 48 0.0 4.0 0.00 0.03 0.00 92 1008.4
20260506020802 49 46 0.0 4.0 0.00 0.03 0.00 92 1008.4
20260506020302 49 52 0.0 2.0 0.00 0.03 0.00 92 1008.5
20260506015802 49 54 0.0 2.0 0.00 0.03 0.00 91 1008.5
20260506014755 49 43 0.0 4.0 0.00 0.03 0.00 91 1008.5
20260506014246 49 45 0.0 4.0 0.00 0.03 0.00 91 1008.6
20260506013739 49 51 0.0 5.0 0.00 0.03 0.00 91 1008.6
20260506013231 49 28 0.0 5.0 0.00 0.03 0.00 91 1008.6
20260506012730 49 32 0.0 5.0 0.00 0.03 0.00 91 1008.6
20260506012230 49 28 0.0 8.0 0.00 0.03 0.00 90 1008.6
20260506011730 50 15 1.0 9.0 0.00 0.03 0.00 90 1008.7
20260506011231 50 16 0.0 9.0 0.00 0.03 0.00 91 1008.7
20260506010730 50 338 0.0 5.0 0.00 0.03 0.00 90 1008.7
20260506010231 50 336 0.0 5.0 0.00 0.03 0.00 90 1008.7
20260506005226 50 340 0.0 0.0 0.00 0.03 0.00 91 1008.7
20260506004718 50 340 0.0 0.0 0.00 0.03 0.00 91 1009.0
20260506004214 50 340 0.0 0.0 0.00 0.03 0.00 91 1008.9
20260506003713 50 340 0.0 3.0 0.00 0.03 0.00 91 1008.9
20260506003212 50 340 0.0 3.0 0.00 0.03 0.00 91 1008.9
20260506002713 50 355 0.0 0.0 0.00 0.03 0.00 90 1008.9
20260506002213 50 355 0.0 0.0 0.00 0.03 0.00 91 1009.0
20260506001709 50 355 0.0 0.0 0.00 0.03 0.00 91 1009.0
20260506001209 50 355 0.0 0.0 0.00 0.03 0.00 91 1009.1
20260506000708 50 355 0.0 0.0 0.00 0.03 0.00 91 1009.2
20260506000208 50 355 0.0 8.0 0.00 0.03 0.00 91 1009.1
20260505235706 50 355 0.0 8.0 0.00 0.03 0.00 91 1009.1
20260505235207 50 351 0.0 6.0 0.00 0.03 0.00 91 1009.2
20260505234702 50 336 0.0 0.0 0.00 0.03 0.00 91 1009.2
20260505234202 50 336 0.0 0.0 0.00 0.03 0.00 91 1009.2
20260505233706 50 336 0.0 4.0 0.00 0.03 0.00 91 1009.2
20260505233202 50 335 0.0 4.0 0.00 0.03 0.00 91 1009.2
20260505232702 51 333 0.0 0.0 0.00 0.03 0.00 91 1009.3
20260505232206 51 333 0.0 0.0 0.00 0.03 0.00 91 1009.2
20260505231702 51 332 0.0 0.0 0.00 0.03 0.00 91 1009.3
20260505230707 51 335 0.0 0.0 0.00 0.03 0.00 91 1009.4
20260505225206 51 25 0.0 0.0 0.00 0.05 0.00 92 1009.6
20260505224705 51 24 0.0 0.0 0.00 0.05 0.00 92 1009.5
20260505224203 51 24 0.0 0.0 0.00 0.06 0.00 93 1009.5
20260505223708 51 24 0.0 0.0 0.00 0.06 0.00 93 1009.5
20260505223202 51 26 0.0 0.0 0.01 0.07 0.00 93 1009.5
20260505222206 51 24 0.0 3.0 0.01 0.09 0.00 92 1009.5
20260505221702 51 24 0.0 3.0 0.01 0.09 0.00 92 1009.6
20260505220853 51 30 0.0 0.0 0.01 0.11 0.00 92 1009.5
20260505215206 51 22 0.0 4.0 0.01 0.16 0.13 93 1009.7
20260505214202 52 34 0.0 4.0 0.01 0.20 0.13 95 1009.7
20260505213706 52 36 0.0 0.0 0.01 0.24 0.13 96 1009.7
20260505213202 52 40 0.0 0.0 0.00 0.25 0.12 97 1009.7
20260505212701 52 40 0.0 0.0 0.00 0.28 0.12 97 1009.8
20260505212206 52 40 0.0 0.0 0.00 0.28 0.12 97 1009.7
20260505211702 52 40 0.0 0.0 0.00 0.29 0.12 97 1009.7
20260505211202 52 40 0.0 0.0 0.00 0.30 0.12 97 1009.8
20260505210708 52 40 0.0 0.0 0.00 0.30 0.12 97 1009.7
20260505210202 52 40 0.0 0.0 0.00 0.30 0.12 96 1009.8
20260505205211 52 40 0.0 0.0 0.00 0.30 0.12 96 1009.9
20260505204702 52 40 0.0 0.0 0.00 0.31 0.12 96 1009.8
20260505204202 52 40 0.0 0.0 0.00 0.31 0.12 96 1009.8
20260505203202 52 40 0.0 0.0 0.00 0.31 0.12 95 1009.8
20260505202702 52 40 0.0 0.0 0.00 0.31 0.12 95 1009.8
20260505202206 52 40 0.0 0.0 0.00 0.31 0.12 96 1009.8
20260505201702 52 40 0.0 0.0 0.00 0.31 0.12 96 1009.7
20260505201201 52 41 0.0 0.0 0.00 0.32 0.12 96 1009.7
20260505200707 52 41 0.0 0.0 0.00 0.32 0.12 96 1009.8
20260505200203 52 38 0.0 0.0 0.00 0.32 0.12 96 1009.7
20260505195702 52 38 0.0 0.0 0.00 0.32 0.12 97 1009.7
20260505195205 52 38 0.0 0.0 0.00 0.32 0.12 96 1009.7
20260505194702 52 38 0.0 0.0 0.00 0.32 0.12 96 1009.7
20260505194202 52 38 0.0 0.0 0.00 0.32 0.12 96 1009.6
20260505193700 52 38 0.0 0.0 0.00 0.32 0.12 96 1009.5
20260505192659 52 38 0.0 0.0 0.00 0.32 0.12 96 1009.4
20260505192158 52 38 0.0 0.0 0.00 0.32 0.12 96 1009.4
20260505191148 52 38 0.0 0.0 0.00 0.32 0.12 96 1009.2
20260505190642 52 38 0.0 0.0 0.00 0.32 0.12 96 1009.3
20260505190140 52 38 0.0 0.0 0.00 0.32 0.12 96 1009.3
20260505185638 52 38 0.0 0.0 0.00 0.32 0.12 96 1009.3
20260505185136 52 38 0.0 0.0 0.00 0.32 0.12 96 1009.3
20260505184637 52 38 0.0 0.0 0.00 0.32 0.12 96 1009.4
20260505184134 52 38 0.0 0.0 0.00 0.32 0.12 96 1009.2
20260505183634 52 38 0.0 0.0 0.00 0.32 0.12 96 1009.2
20260505183130 52 38 0.0 0.0 0.00 0.32 0.12 95 1009.3
20260505182631 52 38 0.0 0.0 0.00 0.32 0.12 95 1009.2
20260505182130 52 38 0.0 0.0 0.00 0.32 0.12 95 1009.3
20260505181630 52 38 0.0 0.0 0.00 0.33 0.12 95 1009.3
20260505180630 52 39 0.0 0.0 0.00 0.33 0.12 95 1009.3
20260505180131 52 37 0.0 0.0 0.00 0.34 0.12 96 1009.4
20260505175631 52 34 0.0 0.0 0.00 0.34 0.12 96 1009.3
20260505175130 52 34 0.0 0.0 0.00 0.35 0.12 96 1009.2